Temperature
2 3 3 3 3 3 2 3 3 4 3 3 3 2 2 3 2 2 1 1 0 0 -0 -0 -0 -0 -0 -0 0 -0 -0 -0 -0 -0 -0 -0 0 0 0 0 0 0 0 0
1 3 2 2 2 2 2 3 3 3 3 2 3 3 2 2 1 1 1 0 -0 -0 -0 -1 -0 -1 -0 -0 -0 -1 -1 -0 -0 -0 -0 -0 -0 -1 -0 -0 -0 -0 -0 -0
2 2 2 1 1 2 2 2 2 2 2 2 1 1 1 1 1 0 0 -0 -1 -1 -1 -1 -1 -1 -1 -1 -1 -1 -1 -1 -1 -1 -1 -1 -1 -1 -1 -1 -1 -1 -1 -1
1 1 1 2 2 2 1 1 1 1 1 1 1 1 1 1 0 -0 -1 -1 -1 -1 -1 -1 -1 -1 -1 -1 -1 -1 -1 -1 -1 -1 -1 -1 -1 -1 -1 -1 -1 -1 -1 -1
1 1 2 1 1 1 0 -0 0 0 0 0 1 1 0 -0 -1 -1 -1 -2 -2 -2 -2 -2 -2 -2 -2 -2 -2 -2 -2 -2 -2 -2 -2 -2 -2 -2 -2 -2 -2 -2 -2 -2
1 1 1 1 0 0 0 -0 -1 -1 -1 -1 -1 -1 -1 -1 -1 -1 -2 -2 -2 -2 -2 -2 -2 -2 -2 -2 -2 -2 -2 -2 -2 -2 -2 -2 -2 -2 -2 -2 -2 -2 -2 -2
0 1 1 -0 -0 0 0 -1 -1 -1 -2 -2 -2 -2 -2 -2 -2 -2 -2 -2 -2 -2 -2 -3 -3 -3 -3 -3 -3 -3 -3 -3 -3 -2 -3 -2 -2 -2 -3 -3 -3 -3 -3 -3
-0 0 0 -1 -1 -1 -2 -1 -2 -2 -2 -3 -3 -3 -3 -3 -3 -3 -3 -3 -3 -3 -3 -3 -3 -3 -3 -3 -3 -3 -3 -3 -3 -3 -3 -3 -3 -3 -3 -3 -3 -3 -3 -3
-1 -1 -1 -1 -1 -1 -1 -2 -2 -2 -3 -3 -3 -3 -3 -3 -3 -3 -3 -3 -3 -3 -3 -3 -3 -3 -3 -3 -4 -4 -4 -3 -3 -3 -3 -3 -3 -3 -3 -3 -3 -4 -4 -4
-2 -2 -1 -1 -1 -2 -2 -2 -2 -3 -3 -3 -3 -4 -4 -4 -4 -4 -4 -4 -4 -4 -4 -4 -4 -4 -4 -4 -4 -4 -4 -4 -4 -4 -4 -4 -4 -4 -4 -4 -4 -4 -4 -4
-3 -2 -2 -2 -2 -2 -2 -3 -3 -3 -3 -3 -4 -4 -4 -4 -4 -4 -4 -4 -4 -4 -4 -4 -4 -4 -4 -4 -4 -4 -4 -4 -4 -4 -4 -4 -4 -4 -4 -4 -5 -5 -4 -4
-3 -2 -2 -2 -2 -3 -3 -3 -3 -3 -3 -4 -4 -4 -4 -4 -4 -4 -4 -4 -4 -4 -4 -4 -4 -4 -4 -4 -4 -4 -5 -5 -5 -5 -5 -5 -5 -5 -5 -5 -5 -5 -5 -5
-2 -2 -2 -3 -3 -3 -3 -3 -3 -3 -4 -4 -4 -4 -4 -4 -4 -4 -4 -4 -4 -4 -4 -5 -5 -5 -5 -5 -5 -5 -5 -5 -5 -5 -5 -5 -5 -5 -5 -5 -5 -5 -5 -5
-3 -3 -3 -3 -3 -3 -3 -3 -3 -3 -4 -4 -4 -4 -4 -4 -4 -4 -4 -4 -5 -5 -5 -5 -5 -5 -5 -5 -5 -5 -5 -5 -5 -5 -5 -5 -5 -6 -6 -5 -5 -5 -5 -5
-3 -3 -3 -4 -4 -4 -4 -4 -4 -4 -4 -4 -4 -5 -5 -4 -4 -5 -5 -5 -5 -5 -5 -5 -5 -5 -5 -5 -5 -5 -5 -5 -5 -5 -6 -6 -6 -6 -6 -6 -6 -6 -5 -5
-4 -4 -4 -4 -4 -4 -4 -4 -4 -4 -5 -5 -5 -5 -5 -5 -5 -5 -5 -5 -5 -5 -5 -5 -6 -6 -5 -6 -6 -6 -6 -6 -6 -6 -6 -6 -6 -6 -6 -6 -6 -6 -6 -6
-4 -4 -4 -5 -5 -5 -5 -5 -5 -5 -5 -5 -5 -5 -5 -5 -5 -5 -5 -5 -5 -5 -6 -6 -6 -6 -6 -6 -6 -6 -6 -6 -6 -6 -6 -6 -6 -6 -6 -6 -6 -6 -6 -6
-4 -4 -4 -4 -5 -5 -5 -5 -5 -5 -5 -5 -5 -5 -5 -5 -5 -5 -5 -6 -6 -6 -6 -6 -6 -6 -6 -6 -6 -6 -6 -6 -6 -6 -6 -6 -6 -7 -7 -7 -7 -7 -7 -7
-4 -4 -4 -5 -5 -5 -5 -5 -5 -5 -5 -5 -5 -5 -5 -5 -5 -6 -6 -6 -6 -6 -6 -6 -6 -6 -6 -6 -6 -6 -6 -6 -6 -7 -7 -7 -7 -7 -7 -7 -7 -7 -7 -7
-4 -5 -5 -5 -5 -5 -5 -5 -5 -5 -5 -6 -6 -6 -6 -6 -6 -6 -6 -6 -6 -6 -6 -6 -6 -6 -6 -6 -6 -6 -7 -7 -7 -7 -7 -7 -7 -7 -7 -7 -7 -7 -7 -7
-5 -5 -5 -5 -5 -5 -5 -5 -6 -6 -6 -6 -6 -6 -6 -6 -6 -6 -6 -6 -6 -6 -6 -6 -6 -6 -7 -7 -7 -7 -7 -7 -7 -7 -7 -7 -7 -7 -7 -7 -7 -7 -7 -7
-5 -5 -5 -5 -5 -5 -6 -6 -6 -6 -6 -6 -6 -6 -6 -6 -6 -6 -6 -7 -7 -7 -7 -6 -6 -7 -7 -7 -7 -7 -7 -7 -7 -7 -7 -7 -7 -7 -7 -7 -7 -7 -7 -7
-5 -5 -5 -5 -6 -6 -6 -6 -6 -6 -6 -6 -6 -6 -6 -6 -6 -7 -7 -7 -7 -7 -7 -7 -7 -7 -7 -7 -7 -7 -7 -7 -7 -7 -8 -8 -8 -8 -8 -8 -8 -8 -7 -7
-5 -5 -5 -6 -6 -6 -6 -6 -6 -6 -6 -6 -6 -6 -6 -7 -7 -7 -7 -7 -7 -7 -7 -7 -7 -7 -7 -7 -7 -7 -8 -8 -8 -8 -8 -8 -8 -8 -8 -8 -8 -8 -8 -8
-5 -5 -6 -6 -6 -6 -6 -6 -6 -6 -6 -6 -7 -7 -7 -7 -7 -7 -7 -7 -7 -7 -7 -7 -7 -7 -7 -7 -8 -8 -8 -8 -8 -8 -8 -8 -8 -8 -8 -8 -8 -8 -8 -8
-5 -6 -6 -6 -6 -6 -6 -6 -7 -7 -7 -7 -7 -7 -7 -7 -7 -7 -7 -7 -7 -7 -7 -7 -7 -8 -8 -8 -8 -8 -8 -8 -8 -8 -8 -8 -8 -8 -8 -8 -8 -8 -8 -8
-6 -6 -6 -6 -6 -6 -7 -7 -7 -7 -7 -7 -7 -7 -7 -7 -7 -7 -7 -7 -7 -7 -7 -8 -8 -8 -8 -8 -8 -8 -8 -8 -8 -8 -8 -8 -8 -8 -8 -8 -8 -8 -8 -8
Wind_Speed
7 7 5 5 6 5 7 8 7 7 7 6 5 4 4 2 1 1 0 1 1 2 2 2 2 2 2 3 3 3 2 2 2 2 2 2 2 2 2 2 2 2 2 3
6 5 5 7 8 8 8 8 9 9 10 6 6 4 3 2 1 2 2 1 2 3 2 2 2 2 2 3 3 3 2 2 2 2 2 2 2 2 2 2 2 2 2 2
5 4 5 7 6 7 6 6 6 8 9 6 5 5 4 3 2 3 2 2 3 3 3 3 2 2 2 3 2 2 2 2 2 2 2 2 2 1 1 1 2 2 2 2
4 3 7 5 1 3 5 6 4 4 5 5 6 6 3 1 1 3 3 3 3 3 3 2 2 2 2 2 2 2 2 2 2 2 2 2 2 1 1 1 1 2 2 2
3 5 6 3 2 2 2 5 3 4 6 7 6 4 1 4 4 3 4 4 3 2 2 2 2 2 2 2 2 2 2 2 2 2 2 2 1 1 1 1 1 2 2 2
4 5 6 3 2 3 1 3 3 4 5 6 5 2 3 4 5 4 4 3 2 2 2 2 2 2 2 2 2 2 2 2 2 2 2 1 1 1 1 1 1 1 1 1
5 6 4 1 2 2 0 3 5 5 5 5 3 3 4 5 4 4 3 3 2 2 2 2 2 2 2 2 3 3 3 2 2 2 2 2 2 2 1 1 1 1 1 1
3 5 5 2 2 0 2 3 4 5 5 4 5 5 4 4 4 3 3 3 2 2 2 2 2 2 2 2 3 3 3 3 2 2 2 2 2 2 2 1 1 2 2 2
3 4 2 1 1 2 2 3 4 5 5 4 4 4 4 4 3 3 3 2 2 1 2 2 2 2 2 2 2 2 2 2 2 2 2 2 2 2 2 2 1 2 2 2
3 3 3 3 2 2 2 3 4 4 4 4 3 3 3 3 3 3 3 2 2 2 2 2 3 3 2 2 2 2 2 2 2 2 2 2 2 2 2 2 2 2 2 2
5 4 4 3 3 3 4 4 4 4 3 3 3 3 3 3 3 3 2 2 2 1 1 2 2 3 3 3 2 2 2 2 2 2 2 2 2 2 2 2 2 2 1 2
4 3 3 4 3 3 3 4 4 4 3 3 2 2 2 2 3 2 2 2 2 2 2 2 2 3 3 3 2 2 2 2 2 2 2 2 2 2 4 3 5 5 4 3
3 3 3 4 3 3 3 3 4 3 2 3 2 2 2 2 2 2 3 2 2 2 2 2 2 2 3 3 2 2 2 2 2 2 2 2 2 2 3 4 5 6 6 6
3 3 4 4 4 3 3 3 3 2 2 2 2 2 1 2 2 2 3 2 2 2 1 1 2 2 2 2 2 2 2 2 2 1 1 2 2 2 2 3 3 4 5 7
2 2 3 3 3 3 2 2 2 2 2 2 1 1 1 2 2 3 3 2 2 2 2 1 2 2 2 2 2 2 2 1 1 1 1 1 2 2 2 2 2 3 3 4
3 3 2 2 3 3 2 2 2 2 2 2 2 2 1 2 2 3 2 1 1 1 2 2 2 2 2 2 1 1 1 2 2 1 1 1 2 2 2 2 2 3 3 4
1 2 3 4 4 3 3 2 2 2 2 2 2 2 1 1 2 2 2 2 1 2 1 1 2 2 1 1 1 1 1 2 2 2 1 1 1 1 2 2 2 3 3 4
2 2 2 3 3 4 3 2 2 2 2 2 1 1 1 1 1 2 2 2 2 2 2 2 2 2 2 2 1 1 1 1 1 1 1 1 1 1 1 2 2 3 3 4
1 2 2 2 2 2 2 2 2 2 2 1 1 1 1 2 1 1 1 1 2 2 3 2 3 2 2 2 2 1 1 1 1 1 1 2 2 1 1 2 2 3 3 3
1 2 2 2 2 2 2 2 2 2 1 1 0 1 1 1 1 1 1 1 1 1 2 2 2 2 2 2 2 1 1 1 1 1 1 1 1 2 2 2 2 3 3 3
2 2 2 2 2 2 2 2 1 2 2 1 1 1 1 2 1 1 1 2 2 2 2 2 2 2 2 2 2 1 1 1 1 1 1 1 2 2 2 2 3 3 3 3
1 1 2 2 2 3 2 2 1 1 1 1 1 1 1 1 1 1 1 1 2 3 2 1 1 2 3 2 1 1 1 1 1 1 1 2 2 2 2 3 3 3 3 3
1 1 1 1 2 2 2 2 1 1 1 1 1 1 1 1 1 1 2 1 1 3 2 1 2 3 3 2 1 1 2 2 2 2 2 2 2 2 3 3 3 3 3 3
1 1 1 1 1 1 2 2 1 1 1 1 1 1 1 1 1 1 1 2 2 2 2 2 3 3 3 2 2 2 2 2 2 2 2 2 2 2 3 3 3 3 3 4
1 1 1 1 1 1 1 1 1 1 1 1 1 1 0 1 1 1 1 1 2 2 2 2 3 4 3 2 2 2 2 2 2 2 2 2 2 3 3 3 3 3 3 3
1 2 2 2 2 1 1 1 1 1 0 1 1 1 1 1 0 1 1 1 1 2 2 2 2 3 2 2 2 2 2 2 3 2 2 2 3 3 3 3 4 4 4 4
1 1 1 1 1 1 1 1 1 1 1 1 1 1 0 0 0 1 1 1 1 1 1 2 2 2 1 1 2 2 2 2 2 2 2 2 2 3 3 4 4 4 4 4
Wind_Direction
271 276 270 268 263 245 233 241 247 261 267 280 295 296 299 295 306 321 273 289 313 318 318 321 329 337 340 336 332 327 334 336 326 318 315 311 307 302 305 305 298 302 299 285
279 269 268 273 270 254 248 253 257 270 275 286 299 304 313 314 275 281 284 300 315 318 319 313 310 320 331 330 330 334 342 336 332 327 327 324 309 304 313 314 312 319 309 298
271 276 296 273 255 242 244 248 253 258 267 300 310 308 293 294 300 290 287 299 295 297 297 300 305 317 315 316 326 335 334 333 338 338 337 324 311 316 309 313 319 325 320 310
277 294 256 249 258 241 235 254 258 272 297 306 299 303 302 334 328 314 308 297 291 293 303 314 328 329 321 324 328 333 338 342 344 352 351 350 0 348 329 337 337 325 324 321
254 268 264 259 295 314 255 276 299 289 300 310 319 319 346 35 20 346 320 309 306 315 328 337 341 343 342 341 345 346 345 345 347 349 352 357 360 342 334 343 328 323 335 335
245 263 271 280 345 338 314 266 344 333 318 327 345 319 296 1 0 345 332 330 343 351 7 4 358 7 5 354 352 339 329 334 342 346 351 344 339 334 332 331 318 319 326 329
250 255 266 282 325 4 225 277 336 346 335 334 320 294 305 335 344 335 330 343 4 13 26 6 0 12 2 360 346 341 351 0 356 355 352 354 357 350 355 2 355 340 331 332
244 245 260 346 18 134 274 325 334 332 333 328 313 314 322 332 334 337 348 356 10 23 14 5 8 10 359 353 347 355 3 4 1 1 358 7 13 6 6 2 356 344 344 343
221 240 286 277 263 271 321 319 323 325 328 321 309 312 325 331 333 340 344 344 354 17 8 357 359 0 350 336 351 359 2 357 356 359 358 3 7 0 360 357 350 338 345 351
269 266 283 279 286 328 334 317 323 328 326 326 313 312 321 326 327 335 339 342 350 7 5 345 345 347 349 346 355 1 1 356 359 4 0 5 10 15 15 7 359 350 354 352
267 279 294 269 298 314 317 321 326 324 320 319 319 317 320 319 321 327 329 326 341 345 331 333 346 352 2 8 16 6 356 353 356 360 1 8 16 20 14 15 7 352 347 338
256 280 283 296 319 323 313 313 316 318 323 331 319 309 320 320 324 327 332 342 353 343 335 335 343 347 353 359 12 9 356 355 357 1 5 8 359 359 6 -0 358 359 354 340
261 290 286 289 310 322 310 312 310 312 306 309 316 319 325 322 328 334 335 343 339 325 328 336 344 351 354 0 8 10 4 355 2 12 9 5 1 358 347 349 356 356 354 351
283 294 286 291 297 317 326 319 317 325 334 336 325 331 338 332 332 337 331 327 331 333 338 350 356 350 354 4 5 2 1 0 6 8 2 360 359 355 349 344 344 343 345 351
287 295 280 292 301 314 313 320 338 336 337 340 347 347 347 336 321 317 319 333 352 354 350 6 358 342 352 1 1 359 358 354 0 3 3 358 350 347 345 341 340 336 340 347
295 298 299 306 303 304 307 311 306 303 311 316 318 312 313 304 300 306 316 350 358 322 319 330 331 335 351 355 352 351 345 350 358 353 353 356 352 349 346 346 344 343 345 343
292 294 305 308 307 305 298 290 278 277 288 292 292 304 323 326 328 330 333 335 319 307 310 320 321 328 343 347 343 333 338 335 341 345 342 345 346 346 346 345 341 338 336 338
247 266 273 275 281 291 295 293 285 285 280 277 292 308 298 286 289 306 318 337 353 356 355 352 342 349 358 356 350 340 343 342 337 330 329 343 351 346 341 335 333 332 329 333
296 297 298 295 289 280 280 281 282 284 286 281 261 269 271 273 275 297 330 355 354 342 338 340 345 5 354 345 354 351 349 341 338 333 331 332 341 349 343 335 331 329 324 326
313 314 316 322 327 306 292 293 295 301 305 305 293 313 322 315 309 310 328 312 298 302 310 328 342 347 344 334 348 350 343 335 331 329 333 338 333 330 331 327 324 322 323 325
301 316 322 327 326 319 303 296 297 299 310 307 236 251 280 305 310 304 311 319 327 343 343 347 360 346 341 341 344 348 345 343 338 331 330 327 325 324 324 323 320 318 321 323
287 301 304 312 320 321 322 320 303 293 301 309 300 261 278 312 320 318 291 267 300 335 354 351 343 337 344 354 359 354 348 342 338 337 333 326 320 316 315 316 315 314 316 317
274 282 291 301 300 304 322 331 319 287 266 267 260 250 251 273 293 300 306 317 326 330 350 334 328 339 358 15 4 353 350 350 347 338 328 320 312 308 307 308 309 311 311 310
270 284 284 294 307 309 315 320 323 307 270 269 259 240 233 284 313 306 280 304 331 340 349 330 344 354 4 16 3 352 345 339 331 324 322 318 313 308 304 303 304 306 307 307
250 258 256 251 259 263 274 305 342 337 329 326 306 287 257 247 265 311 340 333 327 347 353 343 350 357 7 356 345 335 328 317 314 318 318 318 316 314 309 305 303 303 305 303
246 249 249 243 238 234 222 235 280 295 329 342 345 356 0 6 18 341 338 332 325 345 354 346 346 350 354 348 339 332 325 321 323 326 319 314 313 312 310 310 307 303 298 297
253 246 249 258 247 221 206 220 247 263 263 268 299 316 329 338 352 357 348 343 342 346 343 345 350 348 342 333 327 326 324 321 318 315 316 313 308 305 304 301 300 299 299 298
Height
1477 1472 1473 1473 1473 1472 1473 1470 1469 1462 1461 1460 1461 1461 1460 1458 1458 1459 1459 1459 1459 1458 1458 1457 1456 1455 1454 1453 1452 1451 1451 1450 1449 1449 1448 1448 1447 1447 1447 1446 1446 1446 1446 1446
1477 1471 1471 1471 1470 1469 1468 1467 1465 1462 1461 1459 1459 1459 1458 1458 1457 1457 1457 1457 1457 1456 1455 1454 1453 1452 1451 1450 1450 1449 1448 1447 1447 1446 1446 1445 1445 1444 1444 1444 1443 1443 1443 1443
1474 1471 1471 1471 1467 1466 1465 1463 1463 1462 1460 1458 1457 1457 1456 1456 1456 1456 1455 1455 1454 1454 1453 1452 1451 1450 1449 1448 1448 1447 1446 1445 1444 1444 1443 1443 1442 1442 1441 1441 1441 1440 1440 1440
1475 1474 1474 1467 1462 1460 1461 1460 1460 1459 1458 1457 1457 1455 1455 1454 1454 1454 1454 1453 1452 1451 1450 1449 1449 1448 1447 1447 1446 1445 1444 1443 1442 1442 1441 1440 1440 1439 1439 1439 1439 1438 1438 1437
1475 1472 1464 1463 1461 1461 1461 1461 1459 1459 1457 1456 1454 1453 1453 1453 1453 1453 1452 1451 1450 1449 1448 1447 1447 1446 1445 1445 1444 1443 1442 1441 1441 1440 1439 1439 1438 1438 1438 1438 1437 1437 1436 1435
1472 1470 1466 1463 1461 1459 1461 1462 1459 1458 1457 1456 1454 1455 1454 1452 1451 1450 1450 1449 1448 1447 1446 1446 1445 1444 1444 1443 1442 1441 1441 1440 1439 1439 1438 1438 1437 1437 1437 1436 1436 1435 1434 1434
1471 1469 1464 1463 1461 1460 1465 1463 1460 1458 1457 1456 1455 1455 1453 1451 1450 1449 1448 1447 1446 1446 1445 1444 1444 1443 1443 1442 1441 1440 1440 1439 1438 1437 1437 1437 1436 1436 1435 1435 1434 1434 1433 1432
1470 1469 1467 1462 1461 1463 1464 1461 1459 1457 1456 1455 1453 1451 1450 1449 1448 1447 1446 1445 1445 1444 1444 1444 1443 1442 1441 1440 1440 1439 1438 1437 1437 1436 1436 1436 1435 1434 1434 1433 1433 1432 1432 1431
1469 1468 1464 1462 1461 1461 1460 1459 1458 1456 1454 1453 1451 1450 1448 1447 1446 1445 1445 1444 1444 1443 1443 1442 1442 1441 1440 1439 1438 1438 1437 1436 1436 1435 1435 1435 1434 1433 1433 1432 1432 1431 1431 1430
1466 1463 1461 1460 1459 1459 1458 1457 1456 1455 1453 1451 1450 1448 1447 1446 1445 1444 1444 1443 1443 1442 1441 1441 1441 1440 1439 1438 1437 1437 1436 1435 1435 1434 1434 1434 1433 1433 1432 1431 1431 1430 1430 1429
1464 1461 1459 1457 1458 1457 1456 1455 1454 1452 1451 1450 1448 1447 1446 1444 1443 1443 1442 1442 1441 1441 1440 1439 1439 1438 1438 1437 1436 1435 1435 1434 1434 1434 1433 1433 1432 1432 1431 1431 1431 1430 1429 1428
1461 1459 1458 1456 1455 1454 1453 1452 1451 1450 1448 1447 1447 1445 1444 1443 1442 1442 1441 1440 1439 1439 1439 1438 1438 1437 1437 1436 1436 1435 1434 1434 1433 1433 1433 1432 1432 1431 1431 1430 1430 1429 1428 1427
1457 1456 1455 1454 1453 1452 1451 1450 1448 1447 1446 1445 1444 1444 1443 1442 1441 1440 1440 1439 1438 1438 1437 1437 1436 1436 1435 1435 1435 1434 1433 1433 1433 1432 1432 1431 1431 1430 1429 1429 1428 1427 1427 1426
1454 1453 1452 1451 1450 1449 1448 1447 1446 1445 1444 1444 1443 1442 1441 1441 1440 1439 1438 1437 1437 1437 1436 1436 1435 1435 1434 1434 1434 1433 1433 1433 1432 1432 1431 1431 1430 1429 1429 1428 1427 1426 1425 1424
1451 1451 1450 1449 1447 1446 1446 1445 1444 1443 1442 1442 1441 1440 1440 1439 1438 1437 1437 1436 1436 1436 1435 1435 1434 1434 1434 1433 1433 1433 1432 1432 1432 1431 1431 1430 1429 1429 1428 1427 1426 1425 1424 1423
1448 1448 1447 1446 1445 1444 1443 1443 1442 1441 1440 1440 1439 1439 1438 1437 1437 1436 1436 1435 1435 1434 1434 1434 1433 1433 1433 1433 1432 1432 1432 1431 1431 1431 1430 1429 1429 1428 1427 1427 1426 1424 1423 1422
1446 1445 1444 1443 1443 1442 1442 1441 1440 1439 1439 1438 1437 1437 1436 1436 1435 1434 1434 1434 1434 1433 1433 1433 1433 1432 1432 1432 1431 1431 1431 1430 1430 1430 1429 1429 1428 1427 1427 1426 1425 1424 1423 1422
1444 1444 1443 1442 1441 1440 1440 1439 1439 1438 1437 1436 1436 1435 1434 1434 1433 1433 1433 1433 1433 1433 1432 1432 1432 1431 1431 1430 1430 1430 1429 1429 1429 1429 1428 1428 1427 1427 1426 1425 1424 1423 1422 1421
1442 1441 1441 1440 1440 1439 1438 1437 1437 1436 1435 1435 1434 1433 1433 1433 1432 1432 1432 1432 1431 1431 1431 1431 1431 1430 1430 1429 1429 1429 1428 1428 1428 1428 1427 1427 1426 1426 1425 1424 1423 1422 1421 1420
1440 1440 1439 1438 1438 1437 1436 1436 1435 1434 1434 1433 1432 1432 1432 1432 1432 1431 1431 1431 1431 1431 1430 1430 1429 1429 1429 1428 1428 1427 1427 1427 1427 1426 1426 1426 1425 1425 1424 1423 1422 1421 1420 1419
1438 1438 1438 1437 1436 1436 1435 1434 1433 1432 1432 1432 1431 1431 1430 1430 1431 1430 1430 1430 1430 1430 1429 1429 1428 1428 1428 1427 1427 1427 1426 1426 1426 1425 1425 1424 1424 1423 1423 1422 1422 1421 1420 1418
1437 1437 1436 1436 1435 1434 1434 1433 1432 1431 1431 1430 1430 1430 1429 1429 1429 1429 1430 1430 1429 1429 1428 1428 1428 1427 1427 1427 1426 1426 1425 1425 1425 1424 1424 1423 1423 1422 1421 1421 1420 1419 1418 1417
1436 1435 1435 1435 1434 1433 1433 1432 1431 1430 1430 1429 1429 1429 1429 1429 1429 1428 1428 1429 1428 1428 1427 1427 1427 1427 1426 1426 1425 1425 1424 1424 1423 1423 1422 1422 1421 1421 1420 1419 1418 1418 1417 1416
1434 1434 1434 1433 1433 1432 1431 1431 1430 1430 1429 1429 1429 1428 1428 1428 1428 1428 1428 1427 1427 1427 1427 1426 1426 1426 1425 1424 1424 1423 1423 1422 1422 1421 1421 1420 1419 1419 1418 1417 1416 1416 1415 1414
1433 1433 1432 1432 1431 1431 1430 1430 1429 1429 1428 1428 1428 1428 1427 1427 1427 1427 1427 1426 1426 1426 1426 1425 1425 1424 1424 1423 1423 1422 1422 1421 1420 1420 1419 1418 1418 1417 1416 1415 1415 1414 1413 1412
1432 1431 1431 1431 1430 1430 1429 1429 1428 1428 1427 1427 1426 1426 1426 1426 1426 1426 1426 1426 1425 1425 1425 1424 1424 1423 1423 1422 1421 1421 1420 1420 1419 1418 1417 1417 1416 1415 1414 1413 1412 1412 1411 1410
1430 1430 1429 1429 1429 1429 1428 1428 1427 1427 1427 1426 1425 1425 1425 1425 1425 1425 1425 1425 1424 1424 1424 1423 1423 1422 1421 1421 1420 1420 1419 1418 1417 1417 1416 1415 1414 1413 1412 1412 1411 1410 1409 1408